Simultaneous Nadir Overpasses (SNOs) Predictions

Prediction of SNOs between AQUA and NOAA-19 Satellite Orbit:

Table of predicted SNOs for the next 14.0 days since TLE Epoch: 12/29/2017
Index Date (AQUA) Time (AQUA) Lat,Lon (AQUA) SZA (AQUA ) Date (NOAA-19) Time (NOAA-19) Lat,Lon (NOAA-19) SZA (NOAA-19 ) Distance(km) Time Diff (sec)
1 12/31/2017 08:33:27 -80.90,-168.29 73.99 12/31/2017 08:32:36 -80.89,-168.27 73.98 1.41 51
2 12/31/2017 09:22:54 80.90, -0.61 106.01 12/31/2017 09:23:34 80.89, -0.51 105.98 1.90 40
3 01/02/2018 14:07:12 80.88, -71.52 105.82 01/02/2018 14:06:16 80.89, -71.70 105.87 3.11 56
4 01/02/2018 14:56:38 -80.88, 96.13 74.19 01/02/2018 14:57:17 -80.89, 96.14 74.19 1.17 39
5 01/04/2018 19:40:56 -80.87, 25.19 74.40 01/04/2018 19:39:59 -80.89, 25.14 74.36 1.95 57
6 01/04/2018 20:30:24 80.90,-167.49 105.65 01/04/2018 20:30:57 80.89,-167.54 105.63 1.23 33
7 01/07/2018 01:14:42 80.89, 121.53 105.40 01/07/2018 01:13:38 80.89, 121.60 105.42 1.25 64
8 01/07/2018 02:04:08 -80.89, -70.81 74.61 01/07/2018 02:04:41 -80.89, -70.89 74.62 1.47 33
9 01/09/2018 06:48:26 -80.88,-141.80 74.89 01/09/2018 06:47:23 -80.88,-141.95 74.85 2.53 63
10 01/09/2018 07:37:53 80.88, 25.84 105.11 01/09/2018 07:38:19 80.89, 25.71 105.11 2.38 26
11 01/11/2018 12:22:11 80.88, -45.20 104.79 01/11/2018 12:21:00 80.88, -45.19 104.83 0.53 71




NCC Satellite Simultaneous Nadir Overpasses (SNOs) Prediction Service
